Location: Martinez
(33.5170°N, 82.0760°W)
Time: 20:07:17
(UTC-04:00)

HST - Visible Passes

Search period start: 20 April 2014 00:00
Search period end: 30 April 2014 00:00
Orbit: 548 x 553 km, 28.5° (Epoch: 20 April)

Date Brightness Start Highest point End Pass type
(mag) Time Alt. Az. Time Alt. Az. Time Alt. Az.
20 Apr 1.4 20:59:44 10° WSW 21:03:41 41° S 21:06:02 21° ESE visible
20 Apr 3.5 22:41:10 10° WSW 22:41:37 12° WSW 22:41:37 12° WSW visible
21 Apr 1.5 20:53:14 10° WSW 20:57:11 41° S 20:59:56 18° ESE visible
21 Apr 3.4 22:34:49 10° WSW 22:35:31 14° WSW 22:35:31 14° WSW visible
22 Apr 1.6 20:46:45 10° WSW 20:50:39 38° S 20:53:48 15° ESE visible
22 Apr 3.3 22:28:32 10° WSW 22:29:23 14° WSW 22:29:23 14° WSW visible
23 Apr 1.8 20:40:16 10° WSW 20:44:06 35° S 20:47:38 12° SE visible
23 Apr 3.3 22:22:22 10° WSW 22:23:14 13° SW 22:23:14 13° SW visible
24 Apr 2.0 20:33:49 10° WSW 20:37:32 31° SSW 20:41:15 10° SE visible
24 Apr 3.4 22:16:26 10° SW 22:17:05 12° SW 22:17:05 12° SW visible
25 Apr 2.2 20:27:23 10° WSW 20:30:56 27° SSW 20:34:29 10° SE visible
